AV279 Weather Reports


time (UTC)temp
C
wind
direction
speed
KPH
gust
KPH
rain 1hr
cm
rain 24hr
cm
rain mn
cm
humidity
%
barometer
mb
20260510223019 9 45 9.7 14.5 0.05 0.15 0.15 86 1009.9
20260510222019 9 23 9.7 16.1 0.05 0.15 0.15 86 1010.1
20260510221020 9 23 9.7 16.1 0.05 0.15 0.15 86 1010.1
20260510220019 9 23 3.2 4.8 0.08 0.15 0.15 86 1010.3
20260510215041 9 45 12.9 25.7 0.05 0.15 0.15 87 1010.5
20260510214020 10 23 4.8 12.9 0.05 0.15 0.15 86 1010.4
20260510213019 10 23 9.7 17.7 0.05 0.13 0.13 86 1010.4
20260510212039 10 0 8.0 22.5 0.05 0.10 0.10 86 1010.5
20260510211100 10 0 6.4 12.9 0.05 0.10 0.10 86 1010.5
20260510210030 10 0 9.7 25.7 0.05 0.08 0.08 86 1010.6
20260510205019 10 0 4.8 9.7 0.05 0.08 0.08 86 1010.7
20260510204020 10 23 8.0 14.5 0.05 0.08 0.08 86 1010.7
20260510203030 10 315 6.4 12.9 0.05 0.05 0.05 85 1010.8
20260510202052 10 0 8.0 20.9 0.05 0.05 0.05 85 1010.8
20260510201019 10 23 12.9 16.1 0.05 0.05 0.05 85 1010.9
20260510200019 10 23 14.5 25.7 0.05 0.05 0.05 84 1010.9
20260510195030 10 23 12.9 25.7 0.05 0.05 0.05 84 1010.9
20260510194030 10 23 14.5 20.9 0.05 0.05 0.05 83 1010.9
20260510193059 10 23 8.0 14.5 0.03 0.03 0.03 84 1010.6
20260510192039 10 23 12.9 20.9 0.03 0.03 0.03 83 1010.8
20260510191030 10 45 9.7 24.1 0.03 0.03 0.03 83 1010.8
20260510190052 10 23 14.5 25.7 0.00 0.00 0.00 81 1010.9
20260510185019 10 45 12.9 25.7 0.00 0.00 0.00 81 1011.0
20260510184019 11 23 17.7 25.7 0.00 0.00 0.00 81 1011.0
20260510183019 11 23 12.9 30.6 0.00 0.00 0.00 81 1011.0
20260510182019 11 23 11.3 19.3 0.00 0.00 0.00 79 1011.2
20260510181019 11 23 9.7 19.3 0.00 0.00 0.00 79 1011.1
20260510180041 11 45 16.1 29.0 0.00 0.00 0.00 80 1011.0
20260510175019 11 23 17.7 32.2 0.00 0.00 0.00 80 1010.9
20260510174051 11 23 16.1 29.0 0.00 0.00 0.00 80 1010.9
20260510173039 11 23 20.9 30.6 0.00 0.00 0.00 80 1011.0
20260510172041 11 23 12.9 25.7 0.00 0.00 0.00 80 1010.9
20260510171019 11 23 24.1 40.2 0.00 0.00 0.00 79 1011.0
20260510170019 11 23 11.3 19.3 0.00 0.00 0.00 79 1011.1
20260510165019 11 0 20.9 30.6 0.00 0.00 0.00 78 1011.1
20260510164040 12 23 17.7 27.4 0.00 0.00 0.00 78 1011.2
20260510163019 12 23 19.3 25.7 0.00 0.00 0.00 78 1011.4
20260510162019 12 338 12.9 20.9 0.00 0.00 0.00 78 1011.5
20260510161214 12 45 16.1 27.4 0.00 0.00 0.00 78 1011.8
20260510160423 12 23 14.5 22.5 0.00 0.00 0.00 78 1011.8
20260510160051 12 23 17.7 33.8 0.00 0.00 0.00 78 1011.9
20260510155019 12 23 16.1 32.2 0.00 0.00 0.00 78 1011.8
20260510154019 12 23 17.7 38.6 0.00 0.00 0.00 77 1012.1
20260510153032 12 23 19.3 32.2 0.00 0.00 0.00 77 1012.1
20260510152029 13 23 19.3 30.6 0.00 0.00 0.00 76 1012.1
20260510151019 13 23 14.5 29.0 0.00 0.00 0.00 75 1012.3
20260510150019 13 0 20.9 35.4 0.00 0.00 0.00 74 1012.6
20260510145019 13 23 17.7 29.0 0.00 0.00 0.00 73 1012.6
20260510144131 13 23 20.9 32.2 0.00 0.00 0.00 73 1012.8
20260510143051 13 338 16.1 29.0 0.00 0.00 0.00 72 1012.7
20260510142019 13 45 11.3 20.9 0.00 0.00 0.00 71 1012.8
20260510141030 14 23 11.3 25.7 0.00 0.00 0.00 71 1012.7
20260510140019 13 68 9.7 20.9 0.00 0.00 0.00 71 1012.7
20260510135018 14 23 16.1 35.4 0.00 0.00 0.00 70 1012.9
20260510134039 14 45 16.1 22.5 0.00 0.00 0.00 71 1013.0
20260510133019 15 23 20.9 32.2 0.00 0.00 0.00 69 1013.0
20260510132019 14 23 25.7 37.0 0.00 0.00 0.00 69 1013.2
20260510131040 14 23 12.9 22.5 0.00 0.00 0.00 71 1013.3
20260510130041 15 23 19.3 32.2 0.00 0.00 0.00 70 1013.3
20260510125018 15 23 14.5 33.8 0.00 0.00 0.00 69 1013.2
20260510124018 15 23 14.5 22.5 0.00 0.00 0.00 71 1013.4
20260510123018 15 23 19.3 22.5 0.00 0.00 0.00 71 1013.5
20260510122019 15 23 16.1 29.0 0.00 0.00 0.00 72 1013.6
20260510121029 15 23 17.7 25.7 0.00 0.00 0.00 71 1013.5
20260510120019 15 0 16.1 29.0 0.00 0.00 0.00 71 1013.5
20260510115019 15 45 16.1 24.1 0.00 0.00 0.00 72 1013.5
20260510114020 15 45 9.7 20.9 0.00 0.00 0.00 71 1013.7
20260510113042 15 45 12.9 24.1 0.00 0.00 0.00 71 1014.0
20260510112018 15 23 16.1 29.0 0.00 0.00 0.00 71 1014.1
20260510111018 15 23 19.3 27.4 0.00 0.00 0.00 70 1014.0
20260510110049 15 23 24.1 35.4 0.00 0.00 0.00 70 1013.8
20260510105018 15 0 17.7 20.9 0.00 0.00 0.00 70 1014.0
20260510104018 15 45 17.7 33.8 0.00 0.00 0.00 69 1013.7
20260510103018 15 45 9.7 19.3 0.00 0.00 0.00 69 1013.8
20260510102018 16 0 16.1 32.2 0.00 0.00 0.00 68 1014.1
20260510101029 16 45 8.0 12.9 0.00 0.00 0.00 67 1013.9
20260510100040 16 23 16.1 27.4 0.00 0.00 0.00 68 1014.1
20260510095018 15 23 12.9 27.4 0.00 0.00 0.00 67 1014.3
20260510094020 16 45 12.9 24.1 0.00 0.00 0.00 67 1014.1
20260510093049 16 0 17.7 33.8 0.00 0.00 0.00 66 1014.3
20260510092042 15 23 16.1 25.7 0.00 0.00 0.00 68 1014.4
20260510091112 15 0 8.0 14.5 0.00 0.00 0.00 67 1014.3
20260510090020 16 45 11.3 17.7 0.00 0.00 0.00 67 1014.1
20260510085101 16 23 12.9 22.5 0.00 0.00 0.00 66 1013.9
20260510084020 15 45 16.1 24.1 0.00 0.00 0.00 64 1014.1
20260510083020 15 0 17.7 25.7 0.00 0.00 0.00 67 1014.3
20260510082018 15 23 11.3 24.1 0.00 0.00 0.00 69 1014.2
20260510081040 15 23 9.7 27.4 0.00 0.00 0.00 69 1014.4
20260510080038 15 45 12.9 19.3 0.00 0.00 0.00 68 1014.4
20260510075020 15 45 14.5 22.5 0.00 0.00 0.00 67 1014.7
20260510074018 15 23 19.3 29.0 0.00 0.00 0.00 68 1014.7
20260510073020 15 45 11.3 20.9 0.00 0.00 0.00 69 1014.8
20260510072018 15 23 11.3 22.5 0.00 0.00 0.00 70 1014.8
20260510071052 14 23 16.1 20.9 0.00 0.00 0.00 70 1015.0
20260510070040 14 0 11.3 17.7 0.00 0.00 0.00 71 1015.0
20260510065031 13 45 11.3 20.9 0.00 0.00 0.00 73 1015.0
20260510064020 13 45 11.3 17.7 0.00 0.00 0.00 75 1015.1
20260510063003 13 45 8.0 16.1 0.00 0.00 0.00 76 1015.0
20260510062044 13 338 8.0 16.1 0.00 0.00 0.00 79 1015.0
20260510061020 12 0 6.4 9.7 0.00 0.00 0.00 79 1014.9
20260510060040 12 45 6.4 12.9 0.00 0.00 0.00 81 1014.8
20260510055020 12 45 12.9 17.7 0.00 0.00 0.00 82 1014.7
20260510054019 12 45 8.0 16.1 0.00 0.00 0.00 82 1014.8
20260510053020 12 45 6.4 12.9 0.00 0.00 0.00 83 1014.8
20260510052050 11 45 8.0 12.9 0.00 0.00 0.00 84 1014.9
20260510051031 11 68 3.2 6.4 0.00 0.00 0.00 84 1014.8
20260510050031 11 45 12.9 22.5 0.00 0.00 0.00 85 1014.7
20260510045020 11 45 6.4 17.7 0.00 0.00 0.00 85 1014.7
20260510044020 11 45 6.4 9.7 0.00 0.00 0.00 86 1014.9
20260510043020 11 0 6.4 14.5 0.00 0.00 0.00 85 1014.9
20260510042100 11 315 3.2 6.4 0.00 0.00 0.00 85 1014.8
20260510041019 11 68 4.8 8.0 0.00 0.00 0.00 85 1014.7
20260510040020 11 45 6.4 14.5 0.00 0.00 0.00 84 1014.7
20260510035020 11 23 6.4 16.1 0.00 0.00 0.00 84 1014.5
20260510034041 11 23 8.0 14.5 0.00 0.00 0.00 84 1014.5
20260510033020 11 23 6.4 9.7 0.00 0.00 0.00 84 1014.5
20260510032019 11 90 6.4 14.5 0.00 0.00 0.00 84 1014.6
20260510031040 11 23 6.4 9.7 0.00 0.00 0.00 84 1014.6
20260510030019 11 23 1.6 3.2 0.00 0.00 0.00 85 1014.6
20260510025050 11 23 4.8 6.4 0.00 0.00 0.00 85 1014.6
20260510024020 11 45 6.4 9.7 0.00 0.00 0.00 85 1014.6
20260510023020 12 338 3.2 11.3 0.00 0.00 0.00 84 1014.7
20260510022030 12 23 4.8 6.4 0.00 0.00 0.00 84 1014.7
20260510021019 12 68 3.2 4.8 0.00 0.00 0.00 84 1014.8
20260510020020 12 23 3.2 6.4 0.00 0.00 0.00 84 1014.9
20260510015041 12 45 6.4 12.9 0.00 0.00 0.00 84 1014.9
20260510014041 12 0 9.7 16.1 0.00 0.00 0.00 83 1015.0
20260510013020 12 0 8.0 14.5 0.00 0.00 0.00 83 1015.0
20260510012101 12 0 4.8 8.0 0.00 0.00 0.00 83 1015.1
20260510011019 12 23 4.8 12.9 0.00 0.00 0.00 83 1015.1
20260510010019 12 23 8.0 17.7 0.00 0.00 0.00 82 1015.1
20260510005019 12 45 6.4 9.7 0.00 0.00 0.00 81 1015.2
20260510004019 12 23 6.4 9.7 0.00 0.00 0.00 81 1015.4
20260510003019 12 45 6.4 8.0 0.00 0.00 0.00 81 1015.6
20260510002019 12 45 3.2 4.8 0.00 0.00 0.00 80 1015.6
20260510001019 12 23 6.4 8.0 0.00 0.00 0.00 80 1015.6
20260510000019 12 0 4.8 8.0 0.00 0.00 0.00 79 1015.7
20260509235030 12 23 4.8 8.0 0.00 0.00 0.00 79 1015.7
20260509234019 12 23 6.4 9.7 0.00 0.00 0.00 78 1015.7
20260509233019 12 45 8.0 11.3 0.00 0.00 0.00 78 1015.8
20260509232042 12 23 6.4 8.0 0.00 0.00 0.00 77 1016.0
20260509231213 12 45 4.8 8.0 0.00 0.00 0.00 77 1015.8
20260509230820 12 23 4.8 8.0 0.00 0.00 0.00 77 1015.9
20260509225819 12 45 6.4 12.9 0.00 0.00 0.00 77 1015.9
20260509224819 12 45 9.7 16.1 0.00 0.00 0.00 76 1016.0
20260509223841 12 45 6.4 16.1 0.00 0.00 0.00 75 1016.0